Location: Altoona
(40.5167°N, 78.4000°W)
Time: 18:23:59
(UTC-04:00)

NOSS 0 Rocket - Pass Details

Date: 21 August 2017
Orbit: 935 x 955 km, 70.0° (Epoch: 15 September)

Event Time Altitude Azimuth Distance (km) Brightness Sun altitude
Exits shadow 23:51:54 56° 322° (NW) 1,129 4.5 -34.2°
Drops below altitude 10° 23:57:29 10° 18° (NNE) 2,691 6.8 -34.6°
Sets 00:00:06 0° 22° (NNE) 3,641 7.5 -34.8°
